Tracking 19644 objects as of 24-Apr-2019
HD Live streaming from Space Station
objects crossing your sky now

THORAD AGENA D DEB

Track THORAD AGENA D DEB now!
10-day predictions


NORAD ID: 18785
Int'l Code: 1970-025PQ
Perigee: 1,042.6 km
Apogee: 1,044.4 km
Inclination: 100.1 °
Period: 105.9 minutes
Semi major axis: 7414 km
RCS: 0.0134 m2 (small)
Launch date: April 8, 1970
Source: United States (US)
Launch site: AIR FORCE WESTERN TEST RANGE (AFWTR)

Note: This is SATELLITE DEBRIS
aabbcc
Your satellite tracking list
Your tracking list is empty




NASA's NSSDC Master Catalog

Two Line Element Set (TLE):
1 18785U 70025PQ  19113.35067843  .00000072  00000-0  16056-3 0  9994
2 18785 100.0832 252.6165 0001223   7.5312  47.5864 13.59817257564342
Source of the keplerian elements: AFSPC